QPF
0.00 0.00 0.00 0.00 0.00 0.00 0.00 0.00 0.00 0.00 0.00 0.00 0.00 0.00 0.00 0.00 0.00 0.00 0.00 0.00 0.00 0.00 0.00 0.00 0.00 0.00 0.00 0.00 0.00 0.00 0.00 0.00 0.00 0.00 0.00 0.00 0.00 0.00 0.00 0.00 0.00 0.00 0.00 0.00 0.00 0.00 0.00
0.00 0.00 0.00 0.00 0.00 0.00 0.00 0.00 0.00 0.00 0.00 0.00 0.00 0.00 0.00 0.00 0.00 0.00 0.00 0.00 0.00 0.00 0.00 0.00 0.00 0.00 0.00 0.00 0.00 0.00 0.00 0.00 0.00 0.00 0.00 0.00 0.00 0.00 0.00 0.00 0.00 0.00 0.00 0.00 0.00 0.00 0.00
0.00 0.00 0.00 0.00 0.00 0.00 0.00 0.00 0.00 0.00 0.00 0.00 0.00 0.00 0.00 0.00 0.00 0.00 0.00 0.00 0.00 0.00 0.00 0.00 0.00 0.00 0.00 0.00 0.00 0.00 0.00 0.00 0.00 0.00 0.00 0.00 0.00 0.00 0.00 0.00 0.00 0.00 0.00 0.00 0.00 0.00 0.00
0.00 0.00 0.00 0.00 0.00 0.00 0.00 0.00 0.00 0.00 0.00 0.00 0.00 0.00 0.00 0.00 0.00 0.00 0.00 0.00 0.00 0.00 0.00 0.00 0.00 0.00 0.00 0.00 0.00 0.00 0.00 0.00 0.00 0.00 0.00 0.00 0.00 0.00 0.00 0.00 0.00 0.00 0.00 0.00 0.00 0.00 0.00
0.00 0.00 0.00 0.00 0.00 0.00 0.00 0.00 0.00 0.00 0.00 0.00 0.00 0.00 0.00 0.00 0.00 0.00 0.00 0.00 0.00 0.00 0.00 0.00 0.00 0.00 0.00 0.00 0.00 0.00 0.00 0.00 0.00 0.00 0.00 0.00 0.00 0.00 0.00 0.00 0.00 0.00 0.00 0.00 0.00 0.00 0.00
0.00 0.00 0.00 0.00 0.00 0.00 0.00 0.00 0.00 0.00 0.00 0.00 0.00 0.00 0.00 0.00 0.00 0.00 0.00 0.00 0.00 0.00 0.00 0.00 0.00 0.00 0.00 0.00 0.00 0.00 0.00 0.00 0.00 0.00 0.00 0.00 0.00 0.00 0.00 0.00 0.00 0.00 0.00 0.00 0.00 0.00 0.00
0.00 0.00 0.00 0.00 0.00 0.00 0.00 0.00 0.00 0.00 0.00 0.00 0.00 0.00 0.00 0.00 0.00 0.00 0.00 0.00 0.00 0.00 0.00 0.00 0.00 0.00 0.00 0.00 0.00 0.00 0.00 0.00 0.00 0.00 0.00 0.00 0.00 0.00 0.00 0.00 0.00 0.00 0.00 0.00 0.00 0.00 0.00
0.00 0.00 0.00 0.00 0.00 0.00 0.00 0.00 0.00 0.00 0.00 0.00 0.00 0.00 0.00 0.00 0.00 0.00 0.00 0.00 0.00 0.00 0.00 0.00 0.00 0.00 0.00 0.00 0.00 0.00 0.00 0.00 0.00 0.00 0.00 0.00 0.00 0.00 0.00 0.00 0.00 0.00 0.00 0.00 0.00 0.00 0.00
0.00 0.00 0.00 0.00 0.00 0.00 0.00 0.00 0.00 0.00 0.00 0.00 0.00 0.00 0.00 0.00 0.00 0.00 0.00 0.00 0.00 0.00 0.00 0.00 0.00 0.00 0.00 0.00 0.00 0.00 0.00 0.00 0.00 0.00 0.00 0.00 0.00 0.00 0.00 0.00 0.00 0.00 0.01 0.02 0.04 0.01 0.00
0.00 0.00 0.00 0.00 0.00 0.00 0.00 0.00 0.00 0.00 0.00 0.00 0.00 0.00 0.00 0.00 0.00 0.00 0.00 0.00 0.00 0.00 0.00 0.00 0.00 0.00 0.00 0.00 0.00 0.00 0.00 0.00 0.00 0.00 0.00 0.00 0.00 0.00 0.00 0.02 0.00 0.00 0.00 0.00 0.02 0.00 0.00
0.00 0.00 0.00 0.00 0.00 0.00 0.00 0.00 0.00 0.00 0.00 0.00 0.00 0.00 0.00 0.00 0.00 0.00 0.00 0.00 0.00 0.00 0.00 0.00 0.00 0.00 0.00 0.00 0.00 0.00 0.00 0.00 0.00 0.00 0.00 0.00 0.00 0.00 0.00 0.01 0.00 0.00 0.00 0.00 0.00 0.00 0.00
0.00 0.00 0.00 0.00 0.00 0.00 0.00 0.00 0.00 0.00 0.00 0.00 0.00 0.00 0.00 0.00 0.00 0.00 0.00 0.00 0.00 0.00 0.00 0.00 0.00 0.00 0.00 0.00 0.00 0.00 0.00 0.00 0.00 0.00 0.00 0.00 0.00 0.00 0.00 0.00 0.00 0.00 0.00 0.00 0.00 0.00 0.00
0.00 0.00 0.00 0.00 0.00 0.00 0.00 0.00 0.00 0.00 0.00 0.00 0.00 0.00 0.00 0.00 0.00 0.00 0.00 0.00 0.00 0.00 0.00 0.00 0.00 0.00 0.00 0.00 0.00 0.00 0.00 0.00 0.00 0.00 0.00 0.00 0.00 0.00 0.00 0.00 0.00 0.00 0.00 0.00 0.00 0.00 0.00
0.00 0.00 0.00 0.00 0.00 0.00 0.00 0.00 0.00 0.00 0.00 0.00 0.00 0.00 0.00 0.00 0.00 0.00 0.00 0.00 0.00 0.00 0.00 0.00 0.00 0.00 0.00 0.00 0.00 0.00 0.00 0.00 0.00 0.00 0.00 0.00 0.00 0.00 0.00 0.00 0.00 0.00 0.00 0.00 0.00 0.00 0.00
0.00 0.00 0.00 0.00 0.00 0.00 0.00 0.00 0.00 0.00 0.00 0.00 0.00 0.00 0.00 0.00 0.00 0.00 0.00 0.00 0.00 0.00 0.00 0.00 0.00 0.00 0.00 0.00 0.00 0.00 0.00 0.00 0.00 0.00 0.00 0.00 0.00 0.00 0.00 0.00 0.00 0.00 0.00 0.00 0.00 0.00 0.00
0.00 0.00 0.00 0.00 0.00 0.00 0.00 0.00 0.00 0.00 0.00 0.00 0.00 0.00 0.00 0.00 0.00 0.00 0.00 0.00 0.00 0.00 0.00 0.00 0.00 0.00 0.00 0.00 0.00 0.00 0.00 0.00 0.00 0.00 0.00 0.00 0.00 0.00 0.00 0.00 0.00 0.00 0.00 0.00 0.00 0.00 0.00
0.00 0.00 0.00 0.01 0.00 0.00 0.00 0.00 0.00 0.00 0.00 0.00 0.00 0.00 0.00 0.00 0.00 0.00 0.00 0.00 0.00 0.00 0.00 0.00 0.00 0.00 0.00 0.00 0.00 0.00 0.00 0.00 0.00 0.00 0.00 0.00 0.00 0.00 0.00 0.00 0.00 0.00 0.00 0.00 0.00 0.00 0.00
0.00 0.00 0.00 0.00 0.00 0.00 0.00 0.00 0.00 0.00 0.00 0.00 0.00 0.00 0.00 0.00 0.00 0.00 0.00 0.00 0.00 0.00 0.00 0.00 0.00 0.00 0.00 0.00 0.00 0.00 0.00 0.00 0.00 0.00 0.00 0.00 0.00 0.00 0.00 0.00 0.00 0.00 0.00 0.00 0.00 0.00 0.00
0.00 0.00 0.00 0.00 0.00 0.00 0.00 0.00 0.00 0.00 0.00 0.00 0.00 0.00 0.00 0.00 0.00 0.00 0.00 0.00 0.00 0.00 0.00 0.00 0.00 0.00 0.00 0.00 0.00 0.00 0.00 0.00 0.00 0.00 0.00 0.00 0.00 0.00 0.00 0.00 0.00 0.00 0.00 0.00 0.00 0.00 0.00
0.00 0.00 0.00 0.00 0.00 0.00 0.00 0.00 0.00 0.00 0.00 0.00 0.00 0.00 0.00 0.00 0.00 0.00 0.00 0.00 0.00 0.00 0.00 0.00 0.00 0.00 0.00 0.00 0.00 0.00 0.00 0.00 0.00 0.00 0.00 0.00 0.00 0.00 0.00 0.00 0.00 0.00 0.00 0.00 0.00 0.00 0.00
0.00 0.00 0.00 0.00 0.00 0.00 0.00 0.00 0.00 0.00 0.00 0.00 0.00 0.00 0.00 0.00 0.00 0.00 0.00 0.00 0.00 0.00 0.00 0.00 0.00 0.00 0.00 0.00 0.00 0.00 0.00 0.00 0.00 0.00 0.00 0.00 0.00 0.00 0.00 0.00 0.00 0.00 0.00 0.00 0.00 0.00 0.00
0.00 0.00 0.00 0.00 0.00 0.00 0.00 0.00 0.00 0.00 0.00 0.00 0.00 0.00 0.00 0.00 0.00 0.00 0.00 0.00 0.00 0.00 0.00 0.00 0.00 0.00 0.00 0.00 0.00 0.00 0.00 0.00 0.00 0.00 0.00 0.00 0.00 0.00 0.00 0.00 0.00 0.00 0.00 0.00 0.00 0.00 0.00
0.00 0.00 0.00 0.01 0.00 0.00 0.00 0.00 0.00 0.00 0.00 0.00 0.00 0.00 0.00 0.00 0.00 0.00 0.00 0.00 0.00 0.00 0.00 0.00 0.00 0.00 0.00 0.00 0.00 0.00 0.00 0.00 0.00 0.00 0.00 0.00 0.00 0.00 0.00 0.00 0.00 0.00 0.00 0.00 0.00 0.00 0.00
0.00 0.00 0.00 0.00 0.00 0.00 0.00 0.00 0.00 0.00 0.00 0.00 0.00 0.00 0.00 0.00 0.00 0.00 0.00 0.00 0.00 0.00 0.00 0.00 0.00 0.00 0.00 0.00 0.00 0.00 0.00 0.00 0.00 0.00 0.00 0.00 0.00 0.00 0.00 0.00 0.00 0.00 0.00 0.00 0.00 0.00 0.00
0.00 0.00 0.00 0.00 0.00 0.00 0.00 0.00 0.00 0.00 0.00 0.00 0.00 0.00 0.00 0.00 0.00 0.00 0.00 0.00 0.00 0.00 0.00 0.00 0.00 0.00 0.00 0.00 0.00 0.00 0.00 0.00 0.00 0.00 0.00 0.00 0.00 0.00 0.00 0.00 0.00 0.00 0.00 0.00 0.00 0.00 0.00
0.00 0.00 0.00 0.00 0.01 0.01 0.00 0.00 0.00 0.00 0.00 0.00 0.00 0.00 0.00 0.00 0.00 0.00 0.00 0.00 0.00 0.00 0.00 0.00 0.00 0.00 0.00 0.00 0.00 0.00 0.00 0.00 0.00 0.00 0.00 0.00 0.00 0.00 0.00 0.00 0.00 0.00 0.00 0.00 0.00 0.00 0.00
0.00 0.00 0.00 0.00 0.01 0.01 0.00 0.00 0.00 0.00 0.00 0.00 0.00 0.00 0.00 0.00 0.00 0.00 0.00 0.00 0.00 0.00 0.00 0.00 0.00 0.00 0.00 0.00 0.00 0.00 0.00 0.00 0.00 0.00 0.00 0.00 0.00 0.00 0.00 0.00 0.00 0.00 0.00 0.00 0.00 0.00 0.00
0.00 0.00 0.00 0.00 0.00 0.01 0.01 0.00 0.00 0.00 0.00 0.00 0.00 0.00 0.00 0.00 0.00 0.00 0.00 0.00 0.00 0.00 0.00 0.00 0.00 0.00 0.00 0.00 0.00 0.00 0.00 0.00 0.00 0.00 0.00 0.00 0.00 0.00 0.00 0.00 0.00 0.00 0.00 0.00 0.00 0.00 0.00
0.00 0.00 0.00 0.00 0.00 0.00 0.01 0.00 0.00 0.00 0.00 0.00 0.00 0.00 0.00 0.00 0.00 0.00 0.00 0.00 0.00 0.00 0.00 0.00 0.00 0.00 0.00 0.00 0.00 0.00 0.00 0.00 0.00 0.00 0.00 0.00 0.00 0.00 0.00 0.00 0.00 0.00 0.00 0.00 0.00 0.00 0.00
MSLP
1022.04 1021.74 1021.51 1021.32 1021.06 1020.80 1020.49 1020.21 1019.86 1019.54 1019.21 1018.78 1018.41 1018.06 1017.61 1017.27 1016.84 1016.43 1015.92 1015.35 1014.93 1014.49 1014.17 1013.58 1013.02 1012.29 1011.12 1009.11 1007.95 1008.40 1008.84 1008.80 1008.42 1007.98 1007.18 1006.84 1006.56 1006.40 1005.65 1005.64 1005.83 1005.38 1005.39 1005.44 1005.42 1005.34 1005.58
1022.29 1022.04 1021.79 1021.60 1021.36 1021.04 1020.70 1020.34 1019.99 1019.66 1019.35 1018.96 1018.54 1018.05 1017.61 1017.14 1016.75 1016.28 1015.82 1015.30 1014.79 1014.34 1014.06 1013.56 1013.01 1012.32 1010.56 1008.22 1008.13 1008.28 1008.19 1008.25 1007.62 1007.45 1006.99 1006.76 1006.62 1006.58 1006.29 1005.98 1005.73 1005.78 1005.57 1005.29 1005.32 1005.36 1005.65
1022.53 1022.28 1022.01 1021.83 1021.59 1021.28 1020.91 1020.52 1020.15 1019.76 1019.38 1019.00 1018.59 1018.12 1017.59 1017.11 1016.60 1016.14 1015.65 1015.16 1014.66 1014.13 1013.80 1013.41 1012.94 1012.06 1009.74 1008.18 1008.24 1008.27 1008.24 1007.73 1007.62 1007.10 1006.51 1007.04 1006.88 1006.34 1006.27 1005.74 1006.02 1005.71 1005.21 1005.08 1005.41 1005.53 1005.64
1022.68 1022.41 1022.16 1021.94 1021.77 1021.47 1021.13 1020.74 1020.31 1019.87 1019.49 1019.05 1018.60 1018.15 1017.63 1017.08 1016.53 1015.93 1015.45 1014.96 1014.40 1013.83 1013.41 1013.17 1012.76 1011.42 1008.34 1008.26 1008.40 1008.26 1008.07 1007.64 1007.67 1007.44 1007.10 1007.25 1007.07 1006.38 1006.05 1006.11 1005.67 1005.40 1005.15 1004.86 1005.64 1005.68 1005.97
1022.78 1022.54 1022.28 1022.11 1021.79 1021.56 1021.30 1020.97 1020.54 1020.04 1019.58 1019.09 1018.69 1018.15 1017.57 1017.00 1016.44 1015.76 1015.06 1014.50 1013.86 1013.47 1013.16 1012.91 1012.07 1010.48 1007.86 1008.65 1008.03 1007.60 1007.67 1007.10 1007.19 1007.24 1007.26 1007.38 1006.64 1005.98 1005.76 1005.13 1004.80 1005.34 1004.85 1005.35 1005.53 1005.80 1005.67
1022.83 1022.65 1022.47 1022.24 1021.91 1021.57 1021.28 1021.01 1020.68 1020.20 1019.71 1019.20 1018.60 1018.09 1017.54 1016.94 1016.27 1015.52 1014.54 1014.06 1013.43 1013.14 1012.78 1012.05 1011.44 1010.17 1008.09 1007.54 1007.62 1007.69 1007.69 1007.33 1006.84 1006.86 1006.87 1006.66 1006.03 1005.30 1005.46 1004.92 1004.58 1005.35 1005.28 1005.55 1005.33 1005.77 1005.69
1022.68 1022.49 1022.33 1022.08 1021.84 1021.56 1021.25 1020.94 1020.61 1020.24 1019.73 1019.12 1018.59 1017.95 1017.39 1016.81 1016.14 1015.48 1013.80 1012.95 1013.02 1012.06 1011.17 1009.29 1008.95 1008.49 1007.97 1007.92 1008.11 1007.43 1007.33 1007.13 1006.78 1006.57 1005.84 1006.18 1005.24 1004.57 1005.56 1005.81 1005.97 1005.99 1005.77 1005.52 1005.61 1005.75 1005.65
1022.81 1022.51 1022.13 1021.89 1021.73 1021.52 1021.22 1020.86 1020.51 1020.11 1019.69 1019.24 1018.66 1018.01 1017.24 1016.66 1015.95 1015.22 1014.63 1012.08 1012.90 1012.97 1010.27 1009.16 1009.13 1008.73 1008.50 1008.37 1007.20 1006.98 1007.26 1006.68 1006.46 1005.87 1006.04 1006.08 1004.86 1005.52 1006.11 1006.27 1006.07 1005.83 1005.65 1005.62 1005.76 1005.86 1005.58
1022.86 1022.56 1022.29 1021.98 1021.60 1021.29 1021.08 1020.83 1020.45 1020.02 1019.62 1019.17 1018.61 1017.98 1017.37 1016.44 1015.56 1014.68 1013.48 1013.03 1013.21 1012.72 1010.40 1008.81 1008.35 1007.80 1007.63 1008.02 1006.60 1006.25 1006.68 1006.17 1005.95 1005.63 1005.76 1004.99 1005.09 1006.02 1006.17 1006.03 1005.79 1005.68 1005.99 1006.21 1006.15 1005.72 1005.38
1022.91 1022.64 1022.33 1021.99 1021.59 1021.21 1020.86 1020.57 1020.28 1019.88 1019.45 1019.08 1018.66 1018.07 1017.43 1016.45 1015.64 1014.43 1013.12 1013.41 1013.16 1012.84 1009.69 1007.92 1007.71 1007.16 1007.57 1007.20 1006.55 1006.08 1006.38 1006.09 1006.11 1005.50 1005.46 1005.36 1005.79 1006.22 1005.92 1005.83 1005.76 1005.27 1006.19 1005.95 1005.91 1005.23 1004.34
1022.88 1022.59 1022.29 1021.96 1021.57 1021.15 1020.77 1020.42 1020.08 1019.83 1019.49 1018.98 1018.49 1017.99 1017.64 1017.38 1015.65 1013.65 1013.63 1013.41 1013.03 1012.23 1008.04 1007.03 1007.21 1007.71 1006.80 1006.32 1005.79 1006.37 1006.41 1006.19 1005.39 1005.52 1005.94 1005.13 1005.73 1005.88 1005.71 1005.63 1005.88 1005.57 1005.97 1005.63 1005.48 1004.96 1004.71
1022.79 1022.51 1022.20 1021.88 1021.52 1021.17 1020.81 1020.43 1020.09 1019.73 1019.31 1018.92 1018.43 1017.98 1017.61 1016.35 1015.25 1013.83 1013.75 1013.31 1012.61 1010.27 1006.56 1006.22 1006.39 1006.51 1006.40 1005.97 1005.59 1006.07 1006.37 1006.41 1005.53 1005.38 1005.89 1005.09 1006.08 1005.70 1005.24 1005.71 1005.99 1005.88 1005.67 1005.35 1005.15 1004.58 1004.14
1022.66 1022.37 1022.05 1021.76 1021.44 1021.08 1020.72 1020.34 1019.95 1019.54 1019.07 1018.57 1018.16 1017.92 1017.82 1016.21 1013.77 1014.13 1013.62 1012.23 1010.09 1007.03 1006.04 1005.43 1005.08 1005.44 1005.06 1004.92 1005.06 1005.28 1005.35 1005.48 1005.10 1005.17 1004.89 1005.19 1005.56 1005.77 1005.81 1005.45 1005.73 1005.55 1004.74 1003.92 1004.14 1004.14 1003.84
1022.56 1022.27 1021.95 1021.65 1021.32 1020.96 1020.56 1020.18 1019.76 1019.30 1018.80 1018.26 1017.61 1017.28 1016.20 1015.25 1014.63 1014.21 1012.83 1010.88 1007.69 1005.53 1004.76 1004.91 1004.51 1004.61 1004.27 1004.19 1004.40 1004.58 1004.61 1004.45 1004.71 1004.36 1003.67 1004.05 1004.36 1004.94 1005.34 1005.08 1004.33 1004.57 1004.25 1003.60 1003.51 1003.35 1003.52
1022.48 1022.13 1021.82 1021.50 1021.17 1020.81 1020.41 1019.98 1019.54 1019.04 1018.55 1017.98 1016.93 1015.29 1014.62 1014.27 1014.56 1014.39 1011.89 1008.91 1005.97 1005.35 1004.73 1004.48 1004.57 1004.05 1003.91 1003.95 1003.76 1004.20 1003.96 1003.56 1003.74 1004.18 1003.69 1003.39 1003.66 1004.46 1004.47 1004.90 1004.90 1004.46 1004.48 1004.17 1003.66 1004.23 1003.98
1022.39 1022.05 1021.68 1021.27 1020.91 1020.64 1020.28 1019.87 1019.40 1018.85 1018.32 1017.77 1016.17 1014.42 1013.36 1014.22 1014.22 1013.30 1010.79 1007.64 1006.12 1006.35 1005.83 1005.18 1003.74 1003.42 1002.91 1003.35 1003.71 1003.68 1003.23 1003.07 1003.28 1004.05 1003.81 1003.83 1003.71 1004.03 1004.51 1005.02 1005.06 1004.60 1003.88 1004.25 1004.06 1003.43 1003.56
1022.24 1021.92 1021.57 1021.14 1020.76 1020.46 1020.09 1019.70 1019.28 1018.73 1018.02 1017.37 1015.82 1013.50 1013.74 1014.08 1013.63 1011.84 1008.81 1006.95 1006.50 1006.50 1006.34 1005.31 1004.01 1003.42 1002.73 1002.51 1002.92 1002.77 1002.28 1003.07 1003.11 1003.86 1004.10 1003.78 1003.85 1004.18 1004.92 1004.21 1003.62 1004.50 1004.07 1003.92 1003.43 1003.35 1002.94
1022.05 1021.73 1021.34 1020.94 1020.64 1020.33 1019.94 1019.55 1019.15 1018.68 1017.77 1016.88 1015.09 1012.77 1013.81 1013.75 1012.05 1009.91 1007.99 1006.85 1007.10 1006.26 1006.46 1005.75 1005.30 1004.20 1003.25 1002.77 1002.47 1002.22 1001.95 1002.52 1003.10 1003.37 1003.70 1003.88 1003.33 1003.01 1003.47 1003.64 1003.75 1002.88 1003.13 1003.20 1003.02 1003.18 1003.63
1021.84 1021.49 1021.15 1020.76 1020.48 1020.15 1019.81 1019.47 1019.06 1018.72 1018.38 1017.00 1014.26 1012.89 1013.69 1013.16 1010.03 1008.75 1007.90 1006.95 1007.27 1006.36 1005.92 1005.72 1005.03 1004.70 1004.28 1003.17 1002.71 1002.47 1002.39 1002.63 1003.30 1003.15 1003.45 1003.72 1003.57 1002.82 1002.98 1003.90 1004.27 1003.56 1003.27 1002.78 1002.42 1002.57 1002.37
1021.67 1021.33 1020.97 1020.71 1020.39 1020.04 1019.66 1019.33 1018.98 1018.69 1018.38 1017.68 1014.82 1012.26 1012.51 1012.01 1010.05 1008.36 1007.22 1007.03 1006.76 1006.79 1006.14 1006.03 1005.39 1005.21 1004.43 1003.63 1003.27 1002.62 1002.64 1003.18 1003.54 1003.44 1003.62 1003.48 1002.91 1002.34 1001.84 1002.01 1002.55 1003.17 1003.22 1003.21 1002.69 1002.40 1002.57
1021.55 1021.20 1020.84 1020.55 1020.27 1019.97 1019.58 1019.19 1018.85 1018.59 1018.28 1017.55 1014.51 1011.39 1011.20 1010.02 1009.30 1008.43 1007.13 1006.35 1006.16 1006.08 1006.64 1006.45 1005.58 1005.29 1004.48 1003.56 1003.02 1002.65 1002.49 1003.07 1003.53 1003.80 1003.78 1003.49 1002.49 1002.41 1002.33 1002.29 1002.80 1002.31 1002.77 1002.89 1002.69 1002.41 1002.14
1021.41 1021.06 1020.72 1020.38 1020.10 1019.85 1019.51 1019.14 1018.82 1018.50 1018.20 1016.85 1014.20 1012.83 1011.81 1010.07 1008.60 1008.28 1007.43 1006.34 1006.09 1005.75 1005.80 1005.91 1005.67 1004.89 1004.91 1004.22 1003.04 1002.58 1002.52 1002.37 1002.60 1003.65 1003.44 1002.91 1002.07 1002.09 1002.24 1002.47 1002.92 1002.75 1002.42 1002.44 1002.82 1002.75 1002.70
1021.22 1020.88 1020.57 1020.25 1019.95 1019.68 1019.43 1019.13 1018.83 1018.53 1018.09 1016.10 1015.31 1014.52 1013.16 1010.08 1008.83 1008.01 1006.76 1006.48 1006.49 1006.11 1006.32 1006.16 1005.88 1005.39 1004.86 1004.59 1004.48 1003.79 1003.61 1003.66 1003.24 1002.86 1002.76 1002.37 1002.18 1001.94 1001.69 1002.46 1002.92 1002.96 1002.61 1002.82 1002.93 1003.40 1003.74
1020.95 1020.66 1020.35 1020.07 1019.78 1019.51 1019.27 1019.01 1018.78 1018.63 1018.42 1017.18 1016.18 1015.36 1013.01 1009.69 1008.95 1007.81 1007.12 1007.26 1006.95 1006.92 1006.28 1006.24 1006.28 1005.80 1005.64 1005.59 1005.19 1004.57 1004.04 1003.58 1003.27 1002.93 1002.38 1002.07 1002.00 1001.97 1001.49 1002.51 1002.76 1002.74 1003.41 1003.23 1003.53 1004.43 1005.33
1020.67 1020.41 1020.12 1019.82 1019.51 1019.27 1019.07 1018.87 1018.69 1018.58 1018.45 1017.45 1016.87 1015.83 1013.44 1010.54 1009.11 1008.69 1008.00 1007.58 1007.49 1007.42 1007.40 1007.04 1006.53 1006.32 1006.50 1005.99 1004.70 1003.52 1002.89 1002.83 1002.69 1002.63 1002.62 1002.24 1001.81 1001.96 1002.27 1002.48 1003.35 1004.08 1004.26 1004.11 1004.12 1005.02 1005.99
1020.38 1020.16 1019.89 1019.54 1019.21 1018.99 1018.82 1018.63 1018.56 1018.43 1018.39 1017.93 1017.12 1016.52 1014.92 1012.36 1009.77 1009.51 1008.77 1008.28 1007.36 1007.18 1007.22 1007.14 1007.35 1007.24 1006.86 1005.33 1004.17 1002.68 1001.59 1001.49 1001.92 1002.78 1002.95 1002.59 1002.23 1002.20 1002.73 1002.54 1003.23 1002.73 1004.61 1005.44 1004.87 1004.81 1006.30
1020.08 1019.88 1019.64 1019.29 1019.00 1018.75 1018.55 1018.36 1018.32 1018.24 1018.10 1017.85 1016.70 1016.61 1015.44 1012.72 1010.86 1010.58 1009.25 1008.67 1008.92 1008.20 1007.11 1007.38 1007.25 1006.96 1006.56 1004.91 1003.56 1002.32 1001.24 1001.18 1001.11 1001.84 1002.79 1002.94 1002.88 1002.79 1003.19 1003.72 1005.12 1006.01 1006.83 1006.86 1006.03 1006.02 1006.38
1019.79 1019.59 1019.36 1019.06 1018.82 1018.58 1018.33 1018.15 1018.10 1017.96 1017.84 1017.58 1016.25 1016.41 1015.78 1013.28 1011.47 1011.23 1010.78 1009.93 1009.46 1008.93 1007.82 1008.05 1007.73 1006.96 1006.04 1004.85 1003.54 1002.26 1001.49 1001.22 1001.60 1002.45 1002.71 1002.96 1003.28 1003.36 1003.79 1005.10 1006.92 1008.61 1008.10 1007.45 1007.46 1007.54 1007.58
1019.44 1019.33 1019.19 1018.92 1018.67 1018.45 1018.24 1018.07 1017.90 1017.70 1017.60 1017.56 1016.10 1016.24 1016.16 1014.91 1012.00 1012.01 1011.48 1011.14 1010.76 1010.40 1009.86 1008.62 1007.93 1007.34 1006.56 1005.45 1004.21 1002.80 1002.37 1002.06 1001.92 1003.07 1004.93 1004.88 1005.11 1004.74 1007.21 1007.93 1009.54 1009.46 1009.08 1008.95 1008.92 1009.42 1010.04
Thickness
5703 5707 5712 5716 5720 5724 5729 5734 5738 5743 5748 5753 5758 5763 5768 5772 5777 5783 5788 5795 5801 5806 5810 5816 5822 5828 5841 5840 5842 5860 5859 5861 5864 5866 5859 5855 5850 5849 5844 5852 5853 5849 5854 5861 5866 5868 5865
5698 5702 5706 5711 5715 5719 5724 5730 5735 5740 5745 5750 5756 5762 5768 5773 5778 5784 5789 5796 5803 5808 5813 5818 5823 5830 5840 5831 5863 5863 5866 5866 5869 5865 5862 5863 5855 5860 5849 5849 5849 5856 5857 5862 5867 5866 5866
5693 5697 5701 5705 5709 5715 5720 5725 5731 5737 5742 5748 5754 5760 5767 5773 5779 5785 5791 5797 5804 5810 5816 5820 5824 5832 5838 5844 5865 5866 5868 5868 5872 5871 5863 5867 5869 5861 5859 5850 5863 5859 5849 5862 5862 5864 5859
5688 5693 5697 5701 5704 5709 5715 5720 5726 5733 5739 5746 5752 5758 5765 5772 5779 5786 5792 5799 5805 5812 5818 5822 5826 5836 5841 5865 5866 5866 5869 5868 5874 5876 5873 5873 5874 5866 5860 5867 5861 5848 5854 5834 5854 5861 5862
5683 5687 5692 5695 5700 5705 5709 5715 5721 5727 5734 5741 5748 5756 5763 5771 5778 5786 5795 5802 5809 5814 5818 5823 5832 5836 5839 5865 5858 5872 5873 5865 5871 5873 5875 5875 5874 5862 5865 5851 5846 5846 5828 5830 5840 5863 5860
5676 5680 5684 5689 5695 5700 5704 5710 5715 5722 5729 5736 5745 5753 5761 5769 5777 5786 5797 5804 5810 5814 5820 5826 5831 5826 5848 5847 5861 5867 5875 5873 5865 5865 5860 5860 5860 5854 5853 5849 5821 5822 5829 5836 5836 5852 5856
5670 5674 5678 5684 5689 5694 5699 5705 5711 5717 5724 5732 5740 5749 5758 5767 5776 5784 5798 5811 5812 5813 5822 5834 5835 5835 5843 5857 5863 5861 5871 5866 5866 5858 5842 5854 5845 5839 5840 5847 5846 5841 5837 5835 5847 5858 5849
5663 5668 5673 5677 5682 5687 5693 5699 5705 5712 5719 5726 5734 5743 5754 5764 5773 5782 5790 5808 5799 5802 5815 5833 5831 5834 5844 5849 5842 5855 5870 5849 5847 5836 5849 5841 5838 5853 5852 5849 5846 5845 5840 5838 5850 5857 5853
5656 5660 5664 5669 5675 5681 5687 5692 5699 5706 5713 5721 5729 5738 5746 5759 5771 5783 5793 5795 5799 5804 5809 5823 5832 5834 5841 5844 5843 5849 5860 5857 5844 5840 5840 5840 5850 5855 5847 5844 5840 5844 5834 5833 5832 5852 5861
5649 5652 5657 5662 5668 5674 5680 5686 5692 5699 5706 5714 5722 5731 5740 5753 5767 5776 5787 5790 5794 5800 5803 5816 5819 5833 5838 5845 5833 5865 5866 5855 5841 5836 5843 5842 5855 5842 5842 5840 5847 5834 5848 5848 5839 5842 5833
5642 5646 5650 5655 5660 5666 5672 5678 5685 5691 5698 5706 5715 5724 5732 5739 5756 5772 5776 5782 5790 5793 5779 5815 5814 5841 5844 5835 5847 5842 5866 5852 5837 5836 5838 5836 5838 5837 5836 5844 5851 5838 5853 5849 5847 5845 5845
5635 5639 5644 5648 5653 5658 5664 5670 5676 5683 5690 5698 5706 5715 5723 5738 5750 5763 5768 5776 5781 5774 5771 5800 5818 5815 5817 5831 5837 5843 5842 5853 5859 5841 5839 5846 5854 5851 5853 5854 5851 5856 5848 5851 5852 5851 5824
5629 5633 5637 5642 5646 5651 5657 5662 5669 5676 5684 5692 5699 5706 5712 5727 5752 5753 5761 5770 5763 5768 5804 5797 5806 5815 5821 5819 5825 5830 5828 5825 5822 5807 5814 5834 5834 5848 5854 5840 5850 5848 5844 5824 5813 5816 5819
5622 5626 5630 5634 5639 5644 5650 5656 5662 5669 5677 5685 5695 5702 5715 5725 5734 5742 5756 5757 5751 5789 5796 5809 5812 5814 5807 5822 5821 5824 5822 5818 5835 5836 5832 5816 5808 5838 5852 5844 5843 5843 5846 5827 5793 5811 5829
5614 5618 5622 5626 5631 5636 5642 5649 5656 5663 5670 5679 5692 5709 5716 5723 5725 5731 5744 5742 5769 5781 5798 5796 5799 5796 5799 5812 5819 5815 5818 5824 5835 5838 5818 5819 5818 5848 5855 5854 5850 5837 5823 5855 5836 5836 5820
5605 5609 5614 5618 5623 5628 5634 5640 5648 5656 5664 5672 5690 5705 5717 5714 5718 5726 5734 5743 5766 5774 5782 5787 5786 5803 5795 5801 5800 5805 5813 5834 5830 5838 5849 5829 5807 5839 5842 5847 5846 5841 5861 5819 5830 5798 5787
5597 5600 5604 5609 5615 5620 5625 5631 5639 5648 5658 5667 5686 5703 5705 5706 5713 5720 5729 5748 5759 5769 5772 5775 5786 5791 5803 5804 5807 5806 5817 5822 5836 5829 5838 5835 5824 5815 5825 5824 5831 5826 5826 5835 5843 5834 5813
5589 5592 5596 5600 5605 5611 5616 5622 5630 5637 5649 5661 5681 5697 5694 5700 5705 5724 5731 5748 5742 5759 5765 5769 5776 5785 5793 5803 5802 5808 5812 5820 5836 5834 5814 5831 5827 5810 5816 5840 5848 5853 5840 5842 5817 5810 5823
5583 5586 5589 5593 5596 5600 5606 5612 5619 5626 5633 5649 5677 5689 5685 5691 5704 5713 5728 5739 5737 5746 5756 5759 5766 5777 5786 5791 5786 5803 5810 5828 5827 5826 5816 5826 5808 5796 5803 5816 5827 5825 5838 5847 5852 5849 5827
5579 5581 5583 5586 5588 5592 5596 5602 5608 5615 5622 5633 5659 5677 5677 5685 5704 5714 5721 5720 5725 5740 5747 5754 5760 5768 5773 5777 5792 5793 5798 5809 5818 5822 5820 5827 5818 5811 5802 5813 5828 5811 5822 5834 5837 5819 5820
5572 5574 5577 5579 5581 5584 5588 5593 5597 5604 5611 5624 5650 5675 5678 5682 5691 5702 5718 5726 5723 5725 5734 5742 5747 5753 5762 5765 5780 5785 5800 5800 5806 5800 5814 5818 5801 5814 5819 5824 5821 5825 5819 5823 5819 5832 5824
5565 5566 5568 5570 5571 5574 5578 5582 5587 5592 5599 5618 5640 5651 5663 5679 5695 5693 5690 5713 5716 5728 5732 5730 5734 5754 5757 5758 5780 5777 5793 5799 5797 5800 5803 5819 5801 5812 5801 5816 5812 5806 5821 5824 5822 5828 5831
5557 5558 5559 5560 5562 5564 5566 5570 5574 5580 5588 5609 5617 5626 5638 5659 5677 5682 5697 5705 5708 5721 5726 5732 5736 5741 5746 5759 5771 5783 5791 5791 5797 5797 5798 5806 5802 5798 5787 5807 5801 5784 5809 5813 5819 5825 5822
5551 5551 5551 5551 5552 5553 5556 5559 5563 5566 5572 5585 5597 5607 5629 5658 5665 5677 5689 5693 5697 5704 5713 5724 5730 5731 5746 5764 5769 5777 5782 5787 5793 5799 5813 5800 5800 5801 5796 5793 5755 5804 5819 5823 5814 5811 5810
5545 5544 5543 5543 5543 5544 5546 5548 5551 5554 5559 5571 5580 5593 5616 5642 5658 5661 5672 5680 5688 5696 5696 5706 5722 5734 5743 5744 5746 5752 5762 5766 5778 5792 5797 5809 5804 5786 5772 5780 5786 5786 5798 5802 5799 5795 5805
5540 5538 5536 5536 5536 5536 5537 5539 5542 5545 5549 5557 5567 5577 5594 5617 5639 5649 5658 5669 5679 5687 5693 5700 5714 5725 5729 5736 5739 5731 5742 5761 5760 5767 5791 5798 5806 5792 5782 5775 5759 5813 5807 5808 5815 5789 5805
5536 5534 5531 5529 5529 5529 5530 5533 5534 5538 5543 5549 5562 5567 5582 5605 5629 5632 5647 5657 5663 5673 5686 5692 5700 5708 5723 5726 5730 5740 5752 5777 5761 5761 5759 5769 5777 5773 5779 5777 5777 5788 5788 5796 5772 5787 5807
5534 5530 5527 5525 5523 5524 5525 5527 5529 5533 5538 5544 5559 5561 5572 5597 5616 5621 5631 5641 5651 5661 5671 5680 5687 5698 5711 5714 5729 5744 5751 5764 5767 5767 5768 5769 5768 5774 5785 5773 5759 5764 5776 5773 5784 5795 5800
5532 5528 5524 5522 5520 5520 5521 5523 5526 5529 5534 5539 5555 5557 5562 5576 5607 5611 5621 5630 5638 5646 5653 5670 5678 5688 5703 5712 5726 5745 5743 5755 5763 5744 5750 5747 5761 5767 5752 5748 5746 5761 5768 5779 5784 5776 5774